Weather History for KIGQ - April, 2014

Change the Weather History Date:

Monday, April 28, 2014

  Actual Average (KMDW) Record (KMDW)
Temperature  
Mean Temperature 51 °F 55 °F  
Max Temperature 57 °F 64 °F 84 °F (1951)
Min Temperature 45 °F 46 °F 30 °F (1950)
Degree Days  
Heating Degree Days 14 10  
Month to date heating degree days 429  
Since 1 July heating degree days 5752  
Cooling Degree Days 0 1  
Month to date cooling degree days 10  
Year to date cooling degree days 11  
Growing Degree Days 1 (Base 50)    
Moisture  
Dew Point 42 °F    
Average Humidity 74    
Maximum Humidity 94    
Minimum Humidity 46    
Precipitation  
Precipitation 0.40 in 0.13 in 1.63 in (1951)
Month to date precipitation 3.39  
Year to date precipitation 10.11  
Sea Level Pressure  
Sea Level Pressure 29.67 in    
Wind  
Wind Speed 17 mph (ESE)    
Max Wind Speed 28 mph    
Max Gust Speed 34 mph    
Visibility 9 miles    
Events Rain , Thunderstorm    
T = Trace of Precipitation, MM = Missing Value Source: NWS Daily Summary

Daily Weather History Graph

Daily Weather History Graph

Search for Another Location

Airport or City:

Trip Planner

Search our weather history database for the weather conditions in past years. The results will help you decide how hot, cold, wet, or windy it might be!

Date:

Astronomy

Apr. 28, 2014 Rise Set
Actual Time 5:51 AM CDT 7:44 PM CDT
Civil Twilight 5:21 AM CDT 8:14 PM CDT
Nautical Twilight 4:44 AM CDT 8:51 PM CDT
Astronomical Twilight 4:05 AM CDT 9:30 PM CDT
Moon 5:29 AM CDT (4/28) 7:22 PM CDT (4/28)
Length of Visible Light 14h 53m
Length of Day
13h 53m
Waning Crescent, 0% of the Moon is Illuminated
Apr 28
Waning Crescent
Apr 29
New
May 6
First Quarter
May 14
Full
May 21
Last Quarter

Hourly Weather History & Observations

Time (CDT) Temp. Windchill Dew Point Humidity Pressure Visibility Wind Dir Wind Speed Gust Speed Precip Events Conditions
12:15 AM 50.9 °F - 32.0 °F 48% 29.86 in 10.0 mi ESE 17.3 mph 23.0 mph N/A   Overcast
12:35 AM 49.5 °F - 32.7 °F 53% 29.87 in 10.0 mi ESE 16.1 mph 23.0 mph N/A Rain Rain
12:55 AM 48.6 °F - 33.8 °F 57% 29.85 in 10.0 mi ESE 19.6 mph 24.2 mph N/A Rain Light Rain
1:15 AM 49.3 °F - 32.2 °F 52% 29.83 in 10.0 mi ESE 15.0 mph 21.9 mph N/A   Mostly Cloudy
1:35 AM 49.6 °F - 32.0 °F 51% 29.82 in 10.0 mi ESE 17.3 mph 26.5 mph N/A   Mostly Cloudy
1:55 AM 50.0 °F - 31.6 °F 49% 29.82 in 10.0 mi ESE 15.0 mph 20.7 mph N/A   Overcast
2:15 AM 50.4 °F - 31.3 °F 48% 29.80 in 10.0 mi ESE 15.0 mph 20.7 mph N/A   Overcast
2:35 AM 50.5 °F - 31.3 °F 48% 29.77 in 10.0 mi ESE 16.1 mph 27.6 mph N/A   Overcast
2:55 AM 50.4 °F - 31.6 °F 49% 29.77 in 10.0 mi ESE 16.1 mph 20.7 mph N/A   Overcast
3:15 AM 50.9 °F - 31.5 °F 47% 29.76 in 10.0 mi ESE 18.4 mph 26.5 mph N/A   Overcast
3:35 AM 50.9 °F - 31.5 °F 47% 29.75 in 10.0 mi ESE 17.3 mph 28.8 mph N/A   Overcast
3:55 AM 51.1 °F - 31.6 °F 47% 29.74 in 10.0 mi ESE 20.7 mph 27.6 mph N/A   Overcast
4:15 AM 51.4 °F - 31.3 °F 46% 29.74 in 10.0 mi East 16.1 mph 28.8 mph N/A   Overcast
4:35 AM 51.4 °F - 31.3 °F 46% 29.74 in 10.0 mi ESE 21.9 mph 27.6 mph N/A   Overcast
4:55 AM 51.4 °F - 31.6 °F 47% 29.73 in 10.0 mi ESE 19.6 mph 25.3 mph N/A   Overcast
5:15 AM 51.1 °F - 33.1 °F 50% 29.72 in 10.0 mi ESE 16.1 mph 26.5 mph N/A   Light Drizzle
5:35 AM 49.1 °F - 35.4 °F 59% 29.72 in 10.0 mi ESE 19.6 mph 25.3 mph N/A   Light Drizzle
5:55 AM 50.0 °F - 34.7 °F 56% 29.73 in 10.0 mi ESE 21.9 mph 26.5 mph N/A   Light Drizzle
6:15 AM 48.9 °F - 36.3 °F 62% 29.73 in 10.0 mi SE 16.1 mph 28.8 mph N/A   Drizzle
6:35 AM 47.7 °F - 38.3 °F 70% 29.74 in 10.0 mi SE 17.3 mph 23.0 mph N/A Rain Light Rain
6:55 AM 46.8 °F - 39.7 °F 77% 29.74 in 7.0 mi ESE 13.8 mph 23.0 mph 0.02 in Rain Rain
7:15 AM 46.4 °F 39.8 °F 40.8 °F 81% 29.75 in 5.0 mi ESE 16.1 mph 21.9 mph 0.03 in Rain Rain
7:35 AM 45.5 °F 38.1 °F 41.9 °F 87% 29.75 in 1.8 mi ESE 18.4 mph 25.3 mph 0.15 in Rain Light Rain
7:55 AM 45.5 °F 38.1 °F 42.4 °F 89% 29.73 in 4.0 mi ESE 18.4 mph 25.3 mph 0.19 in Rain Light Rain
8:15 AM 46.0 °F 39.3 °F 42.6 °F 88% 29.73 in 10.0 mi ESE 16.1 mph 24.2 mph N/A Rain Light Rain
8:55 AM 46.8 °F - 43.3 °F 88% 29.70 in 4.0 mi East 18.4 mph 23.0 mph 0.01 in Rain Light Rain
9:15 AM 47.3 °F - 43.9 °F 88% 29.64 in 7.0 mi East 24.2 mph 31.1 mph N/A Rain Light Rain
9:35 AM 48.4 °F - 44.4 °F 86% 29.60 in 10.0 mi East 27.6 mph 34.5 mph N/A   Mostly Cloudy
9:55 AM 50.0 °F - 45.3 °F 84% 29.61 in 10.0 mi East 19.6 mph 33.4 mph N/A   Mostly Cloudy
10:15 AM 50.0 °F - 44.4 °F 81% 29.66 in 10.0 mi ESE 20.7 mph 28.8 mph N/A   Overcast
10:35 AM 49.5 °F - 44.1 °F 82% 29.68 in 10.0 mi ESE 18.4 mph 23.0 mph N/A   Overcast
10:55 AM 50.0 °F - 44.6 °F 82% 29.69 in 10.0 mi ESE 18.4 mph - N/A   Overcast
11:15 AM 49.8 °F - 44.1 °F 81% 29.70 in 10.0 mi SE 19.6 mph 23.0 mph N/A   Overcast
11:35 AM 50.0 °F - 43.9 °F 79% 29.69 in 10.0 mi ESE 19.6 mph 25.3 mph N/A   Overcast
11:55 AM 50.2 °F - 44.6 °F 81% 29.67 in 10.0 mi ESE 18.4 mph 29.9 mph N/A   Overcast
12:15 PM 51.6 °F - 45.3 °F 79% 29.67 in 10.0 mi ESE 18.4 mph 26.5 mph N/A   Overcast
12:35 PM 51.8 °F - 45.7 °F 80% 29.66 in 10.0 mi ESE 19.6 mph 23.0 mph N/A   Overcast
12:55 PM 52.2 °F - 46.2 °F 80% 29.66 in 10.0 mi ESE 16.1 mph 28.8 mph N/A   Overcast
1:15 PM 52.2 °F - 46.2 °F 80% 29.66 in 10.0 mi ESE 19.6 mph 26.5 mph N/A   Overcast
1:35 PM 51.8 °F - 45.5 °F 79% 29.66 in 10.0 mi ESE 19.6 mph 27.6 mph N/A   Overcast
1:55 PM 52.7 °F - 46.4 °F 79% 29.66 in 10.0 mi ESE 23.0 mph 29.9 mph N/A   Overcast
2:15 PM 54.1 °F - 46.6 °F 76% 29.66 in 10.0 mi ESE 20.7 mph 25.3 mph N/A   Overcast
2:35 PM 54.7 °F - 47.3 °F 76% 29.66 in 10.0 mi ESE 20.7 mph 26.5 mph N/A   Overcast
2:55 PM 56.7 °F - 48.6 °F 74% 29.63 in 10.0 mi ESE 15.0 mph 31.1 mph N/A   Overcast
3:15 PM 57.2 °F - 48.2 °F 72% 29.62 in 10.0 mi ESE 16.1 mph 27.6 mph N/A   Mostly Cloudy
3:35 PM 56.3 °F - 48.2 °F 74% 29.61 in 10.0 mi East 18.4 mph 25.3 mph N/A   Overcast
3:55 PM 55.4 °F - 48.2 °F 77% 29.60 in 10.0 mi ESE 18.4 mph 26.5 mph N/A   Overcast
4:15 PM 55.4 °F - 48.2 °F 77% 29.58 in 10.0 mi ESE 17.3 mph 20.7 mph N/A   Overcast
4:35 PM 55.2 °F - 48.0 °F 77% 29.57 in 10.0 mi ESE 21.9 mph 26.5 mph N/A   Overcast
4:55 PM 54.7 °F - 48.0 °F 78% 29.57 in 10.0 mi ESE 16.1 mph 24.2 mph N/A   Overcast
5:15 PM 54.7 °F - 48.0 °F 78% 29.57 in 10.0 mi ESE 19.6 mph 23.0 mph N/A   Overcast
5:35 PM 54.7 °F - 48.2 °F 79% 29.56 in 10.0 mi ESE 13.8 mph - N/A   Overcast
5:55 PM 54.1 °F - 47.7 °F 79% 29.56 in 10.0 mi ESE 18.4 mph 25.3 mph N/A   Overcast
6:15 PM 53.6 °F - 47.5 °F 80% 29.57 in 10.0 mi ESE 19.6 mph 28.8 mph N/A   Overcast
6:35 PM 53.6 °F - 47.7 °F 80% 29.58 in 10.0 mi ESE 18.4 mph 24.2 mph N/A   Overcast
6:55 PM 52.7 °F - 47.3 °F 82% 29.58 in 7.0 mi ESE 17.3 mph - N/A   Overcast
7:15 PM 52.7 °F - 47.3 °F 82% 29.58 in 7.0 mi ESE 21.9 mph 27.6 mph N/A   Overcast
7:35 PM 52.3 °F - 47.3 °F 83% 29.58 in 7.0 mi ESE 13.8 mph - N/A   Overcast
7:55 PM 52.0 °F - 47.1 °F 83% 29.58 in 10.0 mi ESE 15.0 mph 19.6 mph N/A   Overcast
8:15 PM 52.0 °F - 46.8 °F 82% 29.57 in 10.0 mi East 17.3 mph 21.9 mph N/A   Overcast
8:35 PM 51.8 °F - 46.6 °F 82% 29.57 in 10.0 mi East 13.8 mph 19.6 mph N/A   Overcast
8:55 PM 51.8 °F - 46.6 °F 82% 29.57 in 10.0 mi East 18.4 mph 24.2 mph N/A   Overcast
9:15 PM 51.6 °F - 46.4 °F 82% 29.58 in 10.0 mi ESE 13.8 mph 19.6 mph N/A   Overcast
9:35 PM 51.8 °F - 48.0 °F 87% 29.64 in 7.0 mi SW 11.5 mph - 0.01 in Rain , Thunderstorm Thunderstorms and Rain
9:55 PM 51.4 °F - 48.7 °F 90% 29.62 in 4.0 mi NNE 4.6 mph - 0.13 in Rain Rain
10:15 PM 50.9 °F - 48.9 °F 93% 29.62 in 4.0 mi ENE 5.8 mph - 0.01 in Rain Rain
10:35 PM 50.9 °F - 48.9 °F 93% 29.60 in 4.0 mi ENE 9.2 mph - 0.03 in Rain Rain
10:55 PM 50.4 °F - 48.6 °F 94% 29.59 in 5.0 mi East 9.2 mph - 0.04 in Rain Light Rain
11:15 PM 50.5 °F - 48.7 °F 94% 29.58 in 7.0 mi ESE 10.4 mph - N/A   Overcast
11:35 PM 50.4 °F - 47.8 °F 91% 29.58 in 7.0 mi ESE 12.7 mph - N/A Rain Light Rain
11:55 PM 50.0 °F - 47.3 °F 90% 29.56 in 7.0 mi East 12.7 mph - 0.01 in Rain Light Rain